CW3303 Weather Reports


Display with metric or nautical units.
time (UTC)temp
F
wind
direction
speed
MPH
gust
MPH
rain 1hr
in
rain 24hr
in
rain mn
in
humidity
%
barometer
mb
20190616170036 69 350 0.0 2.0 0.00 0.02 0.00 83 1012.3
20190616164518 69 314 0.0 2.0 0.00 0.02 0.00 84 1012.3
20190616163025 68 296 0.0 2.0 0.00 0.02 0.00 84 1012.3
20190616161512 68 332 0.0 2.0 0.00 0.02 0.00 84 1012.0
20190616160014 68 349 0.0 4.0 0.00 0.02 0.00 85 1011.9
20190616154505 67 296 1.0 5.0 0.00 0.02 0.00 86 1011.8
20190616153003 68 306 0.0 4.0 0.00 0.02 0.00 84 1011.8
20190616151502 69 358 0.0 3.0 0.00 0.02 0.00 84 1011.8
20190616150002 68 8 0.0 5.0 0.00 0.02 0.00 85 1011.7
20190616144626 68 296 0.0 3.0 0.00 0.02 0.00 86 1011.9
20190616143255 68 304 0.0 4.0 0.00 0.02 0.00 86 1011.8
20190616141610 68 293 0.0 5.0 0.00 0.02 0.00 86 1011.8
20190616140210 68 306 0.0 3.0 0.00 0.02 0.00 86 1011.9
20190616134706 68 302 0.0 4.0 0.00 0.03 0.00 86 1011.8
20190616133134 68 302 0.0 3.0 0.00 0.03 0.00 86 1012.0
20190616131629 68 298 0.0 3.0 0.00 0.03 0.00 86 1012.0
20190616130102 68 333 0.0 4.0 0.00 0.03 0.00 86 1012.2
20190616124608 68 313 0.0 2.0 0.00 0.03 0.00 86 1012.2
20190616123105 69 297 0.0 4.0 0.00 0.03 0.00 86 1012.2
20190616121813 69 302 0.0 2.0 0.00 0.03 0.00 86 1012.3
20190616120142 68 317 0.0 4.0 0.00 0.03 0.00 87 1012.3
20190616114610 68 315 0.0 2.0 0.00 0.03 0.00 87 1012.4
20190616113142 68 298 2.0 6.0 0.00 0.03 0.00 87 1012.8
20190616111644 68 296 3.0 9.0 0.00 0.03 0.00 87 1012.8
20190616110152 68 321 0.0 1.0 0.00 0.03 0.00 87 1012.9
20190616104617 68 306 0.0 8.0 0.00 0.03 0.00 87 1013.3
20190616103138 69 303 2.0 5.0 0.00 0.03 0.00 86 1013.3
20190616101653 69 306 2.0 9.0 0.00 0.03 0.00 84 1013.4
20190616100107 70 344 0.0 5.0 0.00 0.03 0.00 83 1013.5
20190616094553 70 48 2.0 8.0 0.00 0.03 0.03 82 1013.5
20190616093110 70 63 3.0 11.0 0.00 0.03 0.03 81 1013.7
20190616091617 70 46 3.0 9.0 0.00 0.03 0.03 82 1013.9
20190616090107 70 58 2.0 7.0 0.00 0.03 0.03 83 1013.9
20190616084556 70 49 3.0 9.0 0.00 0.03 0.03 83 1013.9
20190616083104 70 50 3.0 7.0 0.00 0.03 0.03 84 1013.9
20190616081645 70 80 3.0 6.0 0.00 0.03 0.03 84 1013.9
20190616080155 70 50 3.0 9.0 0.00 0.03 0.03 84 1013.4
20190616074621 71 59 1.0 8.0 0.00 0.03 0.03 83 1013.4
20190616073133 71 28 3.0 9.0 0.00 0.03 0.03 84 1013.3
20190616071555 71 46 4.0 11.0 0.00 0.03 0.03 84 1013.3
20190616070116 70 48 2.0 11.0 0.00 0.03 0.03 84 1013.2
20190616064613 71 60 4.0 10.0 0.00 0.03 0.03 85 1013.0
20190616063102 71 73 5.0 12.0 0.00 0.03 0.03 85 1012.8
20190616061600 71 55 2.0 8.0 0.00 0.03 0.03 86 1012.7
20190616060121 71 34 2.0 9.0 0.00 0.03 0.03 86 1012.4
20190616054637 71 82 1.0 8.0 0.00 0.03 0.03 87 1012.2
20190616053055 72 39 5.0 10.0 0.01 0.03 0.03 87 1012.2
20190616051558 71 34 4.0 9.0 0.01 0.03 0.03 87 1011.9
20190616050100 72 60 3.0 8.0 0.01 0.03 0.03 86 1011.8
20190616044530 73 37 4.0 8.0 0.00 0.02 0.02 83 1011.7
20190616043046 73 2 2.0 9.0 0.00 0.02 0.02 82 1011.6
20190616041552 73 291 2.0 12.0 0.00 0.02 0.02 82 1011.5
20190616040043 73 50 4.0 9.0 0.00 0.02 0.02 81 1011.4
20190616034546 73 78 1.0 12.0 0.00 0.02 0.02 81 1011.2
20190616033120 74 125 1.0 9.0 0.00 0.02 0.02 83 1011.2
20190616031600 74 36 1.0 8.0 0.00 0.02 0.02 81 1011.3
20190616030114 74 54 4.0 9.0 0.01 0.02 0.02 81 1011.2
20190616024538 74 71 0.0 7.0 0.01 0.02 0.02 81 1011.2
20190616023056 74 53 3.0 8.0 0.01 0.02 0.02 80 1011.2
20190616021532 75 79 1.0 7.0 0.01 0.02 0.02 78 1011.2
20190616020032 77 82 0.0 9.0 0.00 0.01 0.01 74 1011.3
20190616014548 77 47 0.0 8.0 0.00 0.01 0.01 73 1011.3
20190616013029 78 62 1.0 8.0 0.00 0.01 0.01 69 1011.4
20190616011523 78 71 1.0 9.0 0.00 0.01 0.01 69 1011.5
20190616010033 78 68 0.0 8.0 0.00 0.01 0.01 70 1011.6
20190616004541 78 53 1.0 9.0 0.00 0.01 0.01 72 1011.7
20190616003102 77 103 0.0 7.0 0.00 0.01 0.01 72 1011.7
20190616001518 77 52 3.0 8.0 0.00 0.01 0.01 71 1011.8
20190616000038 77 54 3.0 9.0 0.00 0.01 0.01 73 1011.8
20190615234513 76 20 3.0 9.0 0.00 0.01 0.01 72 1011.9
20190615233033 76 52 1.0 9.0 0.00 0.01 0.01 74 1012.1
20190615231510 76 104 2.0 10.0 0.00 0.01 0.01 77 1012.2
20190615230007 76 50 2.0 12.0 0.00 0.01 0.01 79 1012.3
20190615224508 75 57 1.0 7.0 0.00 0.01 0.01 82 1012.6
20190615223005 75 62 3.0 8.0 0.00 0.01 0.01 84 1012.7
20190615221509 75 350 1.0 8.0 0.00 0.01 0.01 84 1012.7
20190615220027 75 53 1.0 6.0 0.00 0.01 0.01 82 1012.7
20190615214511 77 34 4.0 13.0 0.00 0.01 0.01 81 1012.9
20190615213002 76 30 2.0 7.0 0.00 0.01 0.01 82 1012.9
20190615211508 76 48 1.0 10.0 0.00 0.01 0.01 82 1013.1
20190615204752 74 24 1.0 6.0 0.00 0.01 0.01 83 1013.3
20190615203206 74 328 0.0 5.0 0.00 0.01 0.01 85 1013.5
20190615201657 75 41 1.0 7.0 0.00 0.01 0.01 82 1013.6
20190615200218 75 316 0.0 7.0 0.00 0.01 0.01 81 1013.7
20190615194705 75 46 0.0 7.0 0.00 0.01 0.01 81 1013.7
20190615193242 76 24 0.0 3.0 0.00 0.01 0.01 78 1013.7
20190615191709 77 342 1.0 7.0 0.00 0.01 0.01 80 1013.7
20190615190209 74 62 1.0 6.0 0.00 0.01 0.01 84 1013.7
20190615184742 73 17 0.0 6.0 0.00 0.01 0.01 84 1013.8
20190615183136 74 33 1.0 7.0 0.00 0.01 0.01 81 1013.8
20190615181640 74 251 0.0 3.0 0.00 0.01 0.01 82 1013.7
20190615180203 73 289 0.0 3.0 0.00 0.01 0.01 84 1013.8
20190615174647 72 323 1.0 4.0 0.00 0.01 0.01 83 1013.7
20190615173131 73 27 0.0 5.0 0.00 0.01 0.01 83 1013.6
20190615171634 72 313 0.0 4.0 0.00 0.01 0.01 84 1013.4